Location: Newton_East
(35.6670°N, 81.2000°W)
Time: 16:15:27
(UTC-05:00)

ISS - Visible Passes

Search period start: 11 February 2016 00:00
Search period end: 21 February 2016 00:00
Orbit: 399 x 407 km, 51.6° (Epoch: 11 February)

Date Brightness Start Highest point End Pass type
(mag) Time Alt. Az. Time Alt. Az. Time Alt. Az.
15 Feb -1.0 19:09:03 10° N 19:10:18 12° NNE 19:10:28 12° NNE visible
16 Feb -1.3 19:51:15 10° NNW 19:52:42 21° NNW 19:52:42 21° NNW visible
17 Feb -1.8 18:58:43 10° NNW 19:01:16 21° NNE 19:02:23 17° ENE visible
17 Feb 0.1 20:34:45 10° WNW 20:35:01 12° WNW 20:35:01 12° WNW visible
18 Feb -3.4 19:41:39 10° NW 19:44:49 83° W 19:44:49 83° W visible
19 Feb -2.9 18:48:47 10° NW 18:51:54 44° NE 18:54:47 12° ESE visible
19 Feb -0.2 20:26:16 10° W 20:27:27 13° WSW 20:27:27 13° WSW visible
20 Feb -1.5 19:32:20 10° WNW 19:35:12 29° SW 19:37:37 13° S visible
